Flight Track Log - Related Links

Times and Time Zones

All times are in EDT time to prevent confusion due to time zone crossing. See the TAM3001 flight status page for this flight to view local times or setup timezone preferences in your user account.

Time Position Orientation Groundspeed Altitude Reporting Facility
EDT Latitude Longitude Course Direction KTS MPH feet Rate Location/Type
Fri 06:07:22 AM -23.6420 -46.6460 151° Southeast 148 170 3,200  Level FlightAware ADS-B
Fri 06:07:27 AM -23.6470 -46.6450 170° South 160 184 3,300 1,800 Climbing FlightAware ADS-B
Fri 06:08:02 AM -23.6670 -46.6680 226° Southwest 211 243 4,400 1,700 Climbing FlightAware ADS-B
Fri 06:08:27 AM -23.6640 -46.6940 277° West 245 282 5,000 1,309 Climbing FlightAware ADS-B
Fri 06:08:57 AM -23.6580 -46.7340 279° West 286 329 5,600 700 Climbing FlightAware ADS-B
Fri 06:09:27 AM -23.6660 -46.7770 259° West 285 328 5,700 109 Climbing FlightAware ADS-B
Fri 06:09:52 AM -23.6790 -46.8150 250° West 297 342 5,700  Level FlightAware ADS-B
Fri 06:10:17 AM -23.6910 -46.8480 248° West 296 341 5,700 667 Level FlightAware ADS-B
Fri 06:10:37 AM -23.6990 -46.8730 251° West 296 341 6,200 2,640 Climbing FlightAware ADS-B
Fri 06:11:07 AM -23.7120 -46.9150 251° West 302 348 7,900 4,133 Climbing FlightAware ADS-B
Fri 06:11:22 AM -23.7200 -46.9400 251° West 290 334 9,300 3,818 Climbing FlightAware ADS-B
Fri 06:12:02 AM -23.7370 -46.9940 251° West 294 338 11,400 2,960 Climbing FlightAware ADS-B
Fri 06:12:37 AM -23.7520 -47.0430 251° West 305 351 13,000 1,875 Climbing FlightAware ADS-B
Fri 06:13:22 AM -23.7740 -47.1190 252° West 363 418 13,900 1,733 Climbing FlightAware ADS-B
Fri 06:14:07 AM -23.7980 -47.1970 251° West 382 440 15,600 2,520 Climbing FlightAware ADS-B
Fri 06:15:02 AM -23.8290 -47.3010 252° West 389 448 18,100 2,580 Climbing FlightAware ADS-B
Fri 06:15:47 AM -23.8570 -47.3830 250° West 390 449 19,900 2,118 Climbing FlightAware ADS-B
Fri 06:16:27 AM -23.9060 -47.4390 226° Southwest 400 460 21,100 1,950 Climbing FlightAware ADS-B
Fri 06:17:07 AM -23.9520 -47.4910 226° Southwest 402 463 22,500 3,035 Climbing FlightAware ADS-B
Fri 06:17:52 AM -24.0240 -47.5710 225° Southwest 385 443 25,400 3,000 Climbing FlightAware ADS-B
Fri 06:18:37 AM -24.0780 -47.6320 226° Southwest 388 447 27,000 1,835 Climbing FlightAware ADS-B
Fri 06:19:17 AM -24.1260 -47.6870 226° Southwest 381 438 28,000 750 Climbing FlightAware ADS-B
Fri 06:19:57 AM -24.1780 -47.7460 226° Southwest 382 440 28,000  Level FlightAware ADS-B
Fri 06:20:42 AM -24.2300 -47.8050 226° Southwest 385 443 28,000  Level FlightAware ADS-B
Fri 06:21:22 AM -24.2820 -47.8640 226° Southwest 383 441 28,000  Level FlightAware ADS-B
Fri 06:22:07 AM -24.3360 -47.9250 226° Southwest 382 440 28,000  Level FlightAware ADS-B
Fri 06:22:42 AM -24.3810 -47.9760 226° Southwest 381 438 28,000  Level FlightAware ADS-B
Fri 06:23:32 AM -24.4430 -48.0460 226° Southwest 381 438 28,000  Level FlightAware ADS-B
Fri 06:24:12 AM -24.4920 -48.1030 227° Southwest 383 441 28,000  Level FlightAware ADS-B
Fri 06:24:52 AM -24.5410 -48.1580 226° Southwest 382 440 28,000  Level FlightAware ADS-B
Fri 06:25:37 AM -24.5950 -48.2200 226° Southwest 382 440 28,000  Level FlightAware ADS-B
Fri 06:26:17 AM -24.6440 -48.2760 226° Southwest 383 441 28,000 -900 Level FlightAware ADS-B
Fri 06:26:57 AM -24.6940 -48.3330 226° Southwest 378 435 26,800 -1,835 Descending FlightAware ADS-B
Fri 06:27:42 AM -24.7470 -48.3940 226° Southwest 369 425 25,400 -1,976 Descending FlightAware ADS-B
Fri 06:28:22 AM -24.7940 -48.4480 226° Southwest 367 422 24,000 -2,080 Descending FlightAware ADS-B
Fri 06:28:57 AM -24.8340 -48.4930 226° Southwest 365 420 22,800 -2,188 Descending FlightAware ADS-B
Fri 06:29:47 AM -24.8940 -48.5630 227° Southwest 364 419 20,900 -2,267 Descending FlightAware ADS-B
Fri 06:30:27 AM -24.9400 -48.6180 227° Southwest 363 418 19,400 -2,259 Descending FlightAware ADS-B
Fri 06:31:12 AM -24.9780 -48.6900 240° Southwest 360 414 17,700 -1,976 Descending FlightAware ADS-B
Fri 06:31:52 AM -25.0100 -48.7520 240° Southwest 348 400 16,600 -1,725 Descending FlightAware ADS-B
Fri 06:32:32 AM -25.0410 -48.8140 241° Southwest 342 394 15,400 -1,765 Descending FlightAware ADS-B
Fri 06:33:17 AM -25.0730 -48.8760 240° Southwest 343 395 14,100 -1,409 Descending FlightAware ADS-B
Fri 06:34:27 AM -25.1280 -48.9850 241° Southwest 344 396 12,700 -2,018 Descending FlightAware ADS-B
Fri 06:35:07 AM -25.1610 -49.0470 240° Southwest 344 396 10,400 -1,657 Descending FlightAware ADS-B
Fri 06:36:12 AM -25.1850 -49.0960 242° Southwest 322 371 9,800 -982 Descending FlightAware ADS-B
Fri 06:36:57 AM -25.1850 -49.0940 90° East 311 358 8,600 -960 Descending FlightAware ADS-B
Fri 06:37:27 AM -25.2020 -49.1300 242° Southwest 311 358 8,600  Level FlightAware ADS-B
Fri 06:37:57 AM -25.2200 -49.1650 240° Southwest 311 358 8,600 -4,114 Level FlightAware ADS-B
Fri 06:38:02 AM -25.1680 -49.0610 61° Northeast 304 350 6,200 -2,314 Descending FlightAware ADS-B
Fri 06:39:07 AM -25.1850 -49.0930 240° Southwest 304 350 5,900 -450 Descending FlightAware ADS-B
Fri 06:39:22 AM -25.3480 -49.3570 236° Southwest 218 251 5,600 -450 Descending FlightAware ADS-B
Fri 06:39:47 AM -25.3720 -49.3530 171° South 218 251 5,600  Level FlightAware ADS-B
Fri 06:39:57 AM -25.3480 -49.3570 351° North 205 236 5,600  Level FlightAware ADS-B
Fri 06:40:32 AM -25.4020 -49.3220 150° Southeast 202 232 5,600  Level FlightAware ADS-B
Fri 06:43:00 AM -25.5285 -49.1758 134° Southeast  Level Estimated
Fri 06:44:00 AM -25.5285 -49.1758 42° Northeast  Level Estimated
Fri 06:45:00 AM -25.5285 -49.1758 42° Northeast  Level Estimated
Fri 06:46:00 AM -25.5285 -49.1758 42° Northeast  Level Estimated
Fri 06:47:00 AM -25.5285 -49.1758 42° Northeast  Level Estimated
Fri 06:48:00 AM -25.5285 -49.1758 42° Northeast  Level Estimated
Fri 06:49:00 AM -25.5285 -49.1758 42° Northeast  Level Estimated
Fri 06:50:00 AM -25.5285 -49.1758 42° Northeast  Level Estimated
Fri 06:51:00 AM -25.5285 -49.1758 42° Northeast  Level Estimated
Fri 06:52:00 AM -25.5285 -49.1758 42° Northeast  Level Estimated
Fri 06:53:00 AM -25.5285 -49.1758 42° Northeast  Level Estimated
Fri 06:54:00 AM -25.5285 -49.1758 42° Northeast  Level Estimated

Login

Don't have an account? Register now (free) for customized features, flight alerts, and more!